ANGLE54 KNTU-KTMB

Flight info

Callsign ANGLE54
Flight time N/A
Altitude 38000
Route WYNNS5 ILM GARIC AR3 OSTNN AR17 BAHAA AR15 HIBAC TARPN3
Aircraft B737/M-SDFGHIM1RWXYZ/LB1

Departure

Time 2026-04-30 04:12
Airport Oceana Naval Air Station (KNTU)

Arrival

Time N/A
Airport Miami Executive Airport (KTMB)
Time Latitude Longitude Altitude Speed Heading
2026-04-30 04:00 36.82769 -76.01999 25 ft 0 kts 228°
2026-04-30 04:09 36.82766 -76.02002 28 ft 3 kts 228°
2026-04-30 04:09 36.82723 -76.02031 28 ft 11 kts 179°
2026-04-30 04:09 36.82649 -76.01949 28 ft 18 kts 134°
2026-04-30 04:10 36.82550 -76.01821 29 ft 21 kts 134°
2026-04-30 04:10 36.82422 -76.01752 30 ft 20 kts 171°
2026-04-30 04:10 36.82284 -76.01722 33 ft 20 kts 169°
2026-04-30 04:10 36.82151 -76.01691 33 ft 19 kts 169°
2026-04-30 04:11 36.82022 -76.01669 30 ft 18 kts 189°
2026-04-30 04:11 36.81963 -76.01750 31 ft 6 kts 296°
2026-04-30 04:11 36.81975 -76.01771 32 ft 0 kts 311°
2026-04-30 04:11 36.82017 -76.01826 32 ft 38 kts 314°
2026-04-30 04:12 36.82402 -76.02323 30 ft 118 kts 314°
2026-04-30 04:12 36.83134 -76.03262 43 ft 180 kts 314°
2026-04-30 04:12 36.84214 -76.04219 496 ft 202 kts
2026-04-30 04:12 36.85398 -76.03386 1271 ft 215 kts 64°
2026-04-30 04:13 36.85816 -76.01517 1866 ft 231 kts 82°
2026-04-30 04:13 36.86006 -76.00161 2169 ft 249 kts 82°
2026-04-30 04:13 36.86299 -75.97884 2539 ft 278 kts 82°
2026-04-30 04:13 36.86580 -75.95449 3314 ft 290 kts 88°
2026-04-30 04:14 36.86182 -75.92991 4166 ft 292 kts 119°
2026-04-30 04:14 36.84915 -75.91056 5096 ft 289 kts 148°
2026-04-30 04:14 36.83105 -75.90088 6059 ft 282 kts 176°
2026-04-30 04:14 36.81187 -75.90245 7017 ft 276 kts 201°
2026-04-30 04:15 36.79469 -75.91268 8018 ft 274 kts 216°
2026-04-30 04:15 36.77861 -75.92561 9019 ft 277 kts 218°
2026-04-30 04:15 36.76254 -75.93921 9981 ft 282 kts 218°
2026-04-30 04:15 36.74604 -75.95331 10639 ft 299 kts 218°
2026-04-30 04:16 36.72805 -75.96872 10857 ft 329 kts 218°
2026-04-30 04:16 36.70844 -75.98538 11241 ft 349 kts 217°
2026-04-30 04:16 36.68854 -76.00207 12485 ft 340 kts 218°
2026-04-30 04:16 36.66905 -76.01828 13791 ft 334 kts 218°
2026-04-30 04:17 36.64970 -76.03436 14780 ft 336 kts 218°
2026-04-30 04:17 36.63012 -76.05062 15675 ft 340 kts 218°
2026-04-30 04:17 36.61027 -76.06710 16578 ft 345 kts 219°
2026-04-30 04:17 36.59013 -76.08382 17479 ft 350 kts 219°
2026-04-30 04:18 36.56974 -76.10070 18366 ft 354 kts 219°
2026-04-30 04:18 36.54917 -76.11772 19204 ft 357 kts 219°
2026-04-30 04:18 36.52845 -76.13483 20083 ft 358 kts 219°
2026-04-30 04:18 36.50761 -76.15203 20953 ft 360 kts 219°
2026-04-30 04:19 36.48668 -76.16930 21807 ft 363 kts 219°
2026-04-30 04:19 36.46557 -76.18670 22601 ft 366 kts 219°
2026-04-30 04:19 36.44421 -76.20432 23373 ft 370 kts 219°
2026-04-30 04:19 36.42265 -76.22208 24019 ft 373 kts 219°
2026-04-30 04:20 36.40105 -76.23985 24748 ft 373 kts 219°
2026-04-30 04:20 36.37929 -76.25773 25443 ft 375 kts 220°
2026-04-30 04:20 36.35748 -76.27566 26080 ft 378 kts 220°
2026-04-30 04:20 36.33549 -76.29372 26692 ft 381 kts 220°
2026-04-30 04:21 36.31329 -76.31195 27314 ft 383 kts 221°
2026-04-30 04:21 36.29098 -76.33025 27934 ft 386 kts 221°
2026-04-30 04:21 36.26855 -76.34864 28535 ft 388 kts 221°
2026-04-30 04:21 36.24590 -76.36719 29108 ft 391 kts 221°
2026-04-30 04:22 36.22316 -76.38581 29646 ft 394 kts 221°
2026-04-30 04:22 36.20025 -76.40454 30098 ft 396 kts 222°
2026-04-30 04:22 36.17718 -76.42340 30527 ft 399 kts 222°
2026-04-30 04:22 36.15398 -76.44235 30929 ft 401 kts 222°
2026-04-30 04:23 36.13065 -76.46138 31349 ft 402 kts 222°
2026-04-30 04:23 36.10727 -76.48042 31886 ft 400 kts 222°
2026-04-30 04:23 36.08412 -76.49923 32479 ft 397 kts 223°
2026-04-30 04:23 36.06114 -76.51790 32996 ft 396 kts 223°
2026-04-30 04:24 36.03806 -76.53667 33416 ft 396 kts 223°
2026-04-30 04:24 36.01506 -76.55538 33866 ft 396 kts 223°
2026-04-30 04:24 35.99207 -76.57406 34306 ft 394 kts 224°
2026-04-30 04:24 35.96963 -76.59226 34723 ft 390 kts 225°
2026-04-30 04:25 35.94701 -76.61058 35178 ft 387 kts 225°
2026-04-30 04:25 35.92453 -76.62880 35553 ft 387 kts 225°
2026-04-30 04:25 35.90208 -76.64701 35900 ft 386 kts 226°
2026-04-30 04:25 35.87969 -76.66516 36286 ft 384 kts 226°
2026-04-30 04:26 35.85735 -76.68322 36689 ft 382 kts 227°
2026-04-30 04:26 35.83517 -76.70115 37055 ft 381 kts 227°
2026-04-30 04:26 35.81306 -76.71903 37390 ft 380 kts 227°
2026-04-30 04:26 35.79095 -76.73689 37726 ft 379 kts 228°
2026-04-30 04:27 35.76885 -76.75476 37857 ft 383 kts 228°
2026-04-30 04:27 35.72401 -76.79104 37859 ft 386 kts 228°
2026-04-30 04:28 35.67931 -76.82691 37858 ft 379 kts 228°
2026-04-30 04:28 35.63524 -76.86227 37876 ft 378 kts 228°
2026-04-30 04:29 35.59131 -76.89760 37867 ft 378 kts 228°
2026-04-30 04:29 35.54731 -76.93291 37863 ft 378 kts 228°
2026-04-30 04:30 35.50333 -76.96814 37853 ft 377 kts 228°
2026-04-30 04:30 35.45927 -77.00339 37863 ft 378 kts 228°
2026-04-30 04:31 35.41511 -77.03867 37870 ft 380 kts 228°
2026-04-30 04:31 35.37077 -77.07405 37870 ft 381 kts 228°
2026-04-30 04:32 35.32621 -77.10955 37870 ft 383 kts 228°
2026-04-30 04:32 35.28150 -77.14511 37873 ft 384 kts 227°
2026-04-30 04:33 35.23665 -77.18073 37879 ft 385 kts 227°
2026-04-30 04:33 35.19172 -77.21638 37878 ft 386 kts 227°